Hourly Data Report for October 02, 2014

All times are specified in Local Standard Time (LST). Add 1 hour to adjust for Daylight Saving Time where and when it is observed.

MONCTON INTL A
NEW BRUNSWICK

46°06'44.000" N
64°40'43.000" W
70.70 m
8103201
71705
YQM

Download Data

Hourly Data (October 2014)
Hourly Data Report for October 2, 2014
Temp Definition
°C
Dew Point Temp Definition
°C
Rel Hum Definition
%
Wind Dir Definition
10's deg

Wind Spd Definition
km/h
Visibility Definition
km
Stn Press Definition
kPa
Hmdx Definition


Wind Chill Definition


Weather Definition


TIME
00:00 Legend Double Dagger 2.6 2.0 96 36 11 11.3 101.51     LegendNANA
01:00 Legend Double Dagger 3.6 3.2 97 35 7 12.9 101.52     LegendNANA
02:00 Legend Double Dagger 3.8 3.4 97 3 9 16.1 101.48     Clear
03:00 Legend Double Dagger 2.9 2.5 97 4 9 19.3 101.47     LegendNANA
04:00 Legend Double Dagger 4.4 4.0 97 4 10 19.3 101.47     LegendNANA
05:00 Legend Double Dagger 5.3 4.9 97 4 10 24.1 101.47     Clear
06:00 Legend Double Dagger 5.2 4.5 95 36 7 24.1 101.52     LegendNANA
07:00 Legend Double Dagger 4.3 3.4 94 35 8 24.1 101.60     LegendNANA
08:00 Legend Double Dagger 8.4 6.9 90 1 5 24.1 101.67     Mainly Clear
09:00 Legend Double Dagger 11.5 6.3 70 4 24 24.1 101.65     LegendNANA
10:00 Legend Double Dagger 12.4 6.3 66 5 26 24.1 101.64     LegendNANA
11:00 Legend Double Dagger 13.2 5.9 61 4 27 24.1 101.61     Mainly Clear
12:00 Legend Double Dagger 13.6 6.0 60 2 27 24.1 101.58     LegendNANA
13:00 Legend Double Dagger 14.0 6.4 60 3 28 24.1 101.54     LegendNANA
14:00 Legend Double Dagger 14.6 7.0 60 3 22 24.1 101.44     Mainly Clear
15:00 Legend Double Dagger 13.9 7.0 63 2 31 24.1 101.45     LegendNANA
16:00 Legend Double Dagger 13.1 7.8 70 2 26 24.1 101.45     LegendNANA
17:00 Legend Double Dagger 12.1 7.8 75 4 22 24.1 101.49     Mostly Cloudy
18:00 Legend Double Dagger 10.6 7.9 83 2 17 24.1 101.49     LegendNANA
19:00 Legend Double Dagger 10.6 8.2 85 2 13 24.1 101.50     LegendNANA
20:00 Legend Double Dagger 10.3 8.6 89 3 15 24.1 101.51     Cloudy
21:00 Legend Double Dagger 10.8 9.6 92 4 13 24.1 101.50     LegendNANA
22:00 Legend Double Dagger 9.5 8.8 95 3 13 24.1 101.46     LegendNANA
23:00 Legend Double Dagger 9.2 8.5 95 5 13 24.1 101.43     Clear

Notes on Data Quality.

Legend

  • E = Estimated
  • M = Missing
  • NA = Not Available
  • ‡ = Partner data that is not subject to review by the National Climate Archives
Date modified: